2021-033G (48254 NORAD) Tracking and Keplerian Element Data

This shows tracking and keplerian element data for the satellite.

Feedback or suggestion? Click here.




ElementValue
Catalog48254
Name2021-033G
Epoch Orbit299
Epoch Day136.94853691
Epoch Year2021
RAAN212.4486
Inclination97.3919
Eccentricity0.0011333
Argument of Perigee198.3469
Mean Anonmoly337.3911
Mean Motion15.21262544
Decay Rate1.029E-05
L11 48254U 21033G 21136.94853691 .00001029 00000-0 49095-4 0 9993
L22 48254 97.3919 212.4486 0011333 198.3469 337.3911 15.21262544 2990

Live tracking and technical data element details for 2021-033G (NORAD 48254). 2021-033G can be tracked NOW for your location showing map with azimuth and elevation plus other details from your city location.

Track the satellite on the map from your city or location and see movement details for azimuth, elevation, latitude, longitude, range, height, and movement on the map or in text.







IsCatalogInMostPopularTable: catalog: 48254, numindb: 5
Update: records affected: 1



GetName: 48254 2021-033G

Hit Count: updated at: Mon, 17 May 2021 16:30:53 GMT